Tracking 18980 objects as of 23-Feb-2018
HD Live streaming from Space Station
objects crossing your sky now

FENGYUN 1C DEB

Track FENGYUN 1C DEB now!
10-day predictions


NORAD ID: 31338
Int'l Code: 1999-025BQS
Perigee: 832.4 km
Apogee: 967.4 km
Inclination: 98.9 °
Period: 102.8 minutes
Semi major axis: 7270 km
RCS: 0.0099 m2 (small)
Launch date: May 10, 1999
Source: People's Republic of China (PRC)
Launch site: Taiyaun Space Center, China (TSC)

Note: This is SATELLITE DEBRIS
aabbcc
Your satellite tracking list
Your tracking list is empty




NASA's NSSDC Master Catalog

Two Line Element Set (TLE):
1 31338U 99025BQS 18053.45808522 +.00001139 +00000-0 +76957-3 0  9995
2 31338 098.8665 297.0958 0092862 192.7982 167.0825 14.00298366237232
Source of the keplerian elements: AFSPC